EW1160 Weather Reports


Display with metric or nautical units.
time (UTC)temp
F
wind
direction
speed
MPH
gust
MPH
rain 1hr
in
rain 24hr
in
rain mn
in
humidity
%
barometer
mb
20260507193004 47 4 0.0 0.0 0.00 0.00 0.00 70 1009.2
20260507191601 46 16 0.0 0.0 0.00 0.00 0.00 71 1009.3
20260507190042 46 29 0.0 0.0 0.00 0.00 0.00 74 1009.4
20260507184541 46 359 0.0 0.0 0.00 0.00 0.00 74 1009.6
20260507183024 47 23 0.0 0.0 0.00 0.00 0.00 71 1009.5
20260507181523 47 18 0.0 0.0 0.00 0.00 0.00 70 1009.4
20260507180008 47 72 0.0 0.0 0.00 0.00 0.00 72 1009.5
20260507174505 48 13 0.0 0.0 0.00 0.00 0.00 68 1009.4
20260507173046 49 27 0.0 0.0 0.00 0.00 0.00 67 1009.5
20260507171544 49 13 0.0 0.0 0.00 0.00 0.00 68 1009.6
20260507170026 49 17 0.0 0.0 0.00 0.00 0.00 68 1009.7
20260507164525 49 16 0.0 0.0 0.00 0.00 0.00 68 1010.0
20260507163020 50 22 0.0 0.0 0.00 0.00 0.00 69 1010.0
20260507161511 48 10 0.0 0.0 0.00 0.00 0.00 68 1010.2
20260507160011 48 21 0.0 0.0 0.00 0.00 0.00 66 1010.4
20260507154508 47 18 0.0 0.0 0.00 0.00 0.00 66 1010.3
20260507153004 47 4 0.0 0.0 0.00 0.00 0.00 75 1010.3
20260507151503 46 17 0.0 0.0 0.00 0.00 0.00 79 1010.5
20260507150006 46 4 0.0 0.0 0.00 0.00 0.00 80 1010.5
20260507144601 45 11 0.0 0.0 0.00 0.00 0.00 81 1010.4
20260507143042 45 21 0.0 0.0 0.00 0.00 0.00 80 1010.5
20260507141542 44 20 0.0 0.0 0.00 0.00 0.00 83 1010.6
20260507140028 44 24 0.0 0.0 0.00 0.00 0.00 84 1010.7
20260507134527 43 23 0.0 0.0 0.00 0.00 0.00 85 1010.8
20260507133007 43 9 0.0 0.0 0.00 0.00 0.00 85 1010.7
20260507131506 43 21 0.0 0.0 0.00 0.00 0.00 85 1010.7
20260507130048 43 18 0.0 0.0 0.00 0.00 0.00 84 1010.8
20260507124548 42 32 0.0 0.0 0.00 0.00 0.00 84 1010.8
20260507123029 42 4 0.0 0.0 0.00 0.00 0.00 85 1010.8
20260507121529 41 47 0.0 0.0 0.00 0.00 0.00 85 1010.9
20260507120011 40 47 0.0 0.0 0.00 0.00 0.00 85 1010.7
20260507114510 39 43 0.0 0.0 0.00 0.00 0.00 85 1010.5
20260507113053 38 43 0.0 0.0 0.00 0.00 0.00 86 1010.4
20260507111553 37 43 0.0 0.0 0.00 0.00 0.00 87 1010.2
20260507110035 37 43 0.0 0.0 0.00 0.00 0.00 86 1010.0
20260507104536 36 43 0.0 0.0 0.00 0.00 0.00 86 1009.9
20260507103024 36 43 0.0 0.0 0.00 0.00 0.00 86 1010.0
20260507101536 35 43 0.0 0.0 0.00 0.00 0.00 86 1010.0
20260507100030 35 43 0.0 0.0 0.00 0.00 0.00 86 1010.0
20260507094521 35 43 0.0 0.0 0.00 0.00 0.00 86 1010.0
20260507093026 35 43 0.0 0.0 0.00 0.00 0.00 85 1010.0
20260507091541 35 43 0.0 0.0 0.00 0.00 0.00 85 1010.1
20260507090017 35 43 0.0 0.0 0.00 0.00 0.00 84 1010.2
20260507084515 36 43 0.0 0.0 0.00 0.00 0.00 84 1010.1
20260507083101 37 43 0.0 0.0 0.00 0.00 0.00 84 1010.0
20260507081559 37 43 0.0 0.0 0.00 0.00 0.00 84 1010.1
20260507080036 37 43 0.0 0.0 0.00 0.00 0.00 83 1010.0
20260507074539 38 42 0.0 0.0 0.00 0.00 0.00 84 1010.1
20260507073016 38 41 0.0 0.0 0.00 0.00 0.00 84 1010.2
20260507071514 38 41 0.0 0.0 0.00 0.00 0.00 82 1010.3
20260507070137 39 41 0.0 0.0 0.00 0.00 0.00 81 1010.4
20260507064553 40 41 0.0 0.0 0.00 0.00 0.00 79 1010.5
20260507063030 41 41 0.0 0.0 0.00 0.00 0.00 78 1010.7
20260507061533 41 15 0.0 0.0 0.00 0.00 0.00 80 1010.8
20260507060016 41 14 0.0 0.0 0.00 0.00 0.00 80 1010.8
20260507054512 41 54 0.0 0.0 0.00 0.00 0.00 81 1010.8
20260507053056 41 79 0.0 0.0 0.00 0.00 0.00 81 1010.9
20260507051554 41 23 0.0 0.0 0.00 0.00 0.00 81 1011.0
20260507050035 41 18 0.0 0.0 0.00 0.00 0.00 80 1011.1
20260507044544 42 24 0.0 0.0 0.00 0.00 0.00 80 1011.1
20260507043013 43 14 0.0 0.0 0.00 0.00 0.00 78 1011.0
20260507041509 45 349 0.0 0.0 0.00 0.00 0.00 72 1010.7
20260507040052 45 177 0.0 0.0 0.00 0.00 0.00 72 1010.4
20260507034550 45 178 0.0 0.0 0.00 0.00 0.00 71 1010.5
20260507033031 45 167 0.0 0.0 0.00 0.00 0.00 71 1010.7
20260507031531 45 177 0.0 0.0 0.00 0.00 0.00 72 1010.8
20260507030013 45 147 0.0 0.0 0.00 0.00 0.00 71 1010.9
20260507024514 45 141 0.0 0.0 0.00 0.00 0.00 69 1010.8
20260507023055 45 139 0.0 0.0 0.00 0.00 0.00 69 1010.7
20260507021615 45 127 0.0 0.0 0.00 0.00 0.00 70 1010.7
20260507020037 45 25 0.0 0.0 0.00 0.00 0.00 69 1010.5
20260507014551 45 25 0.0 0.0 0.00 0.00 0.00 71 1010.6
20260507013020 45 25 0.0 0.0 0.00 0.00 0.00 73 1010.6
20260507011528 45 25 0.0 0.0 0.00 0.00 0.00 74 1010.6
20260507010001 46 25 0.0 0.0 0.00 0.00 0.00 72 1010.7
20260507004600 46 25 0.0 0.0 0.00 0.00 0.00 71 1010.7
20260507003042 46 25 0.0 0.0 0.00 0.00 0.00 69 1010.8
20260507001543 46 25 0.0 0.0 0.00 0.00 0.00 68 1010.7
20260507000031 46 25 0.0 0.0 0.00 0.00 0.00 68 1010.6
20260506234530 46 25 0.0 0.0 0.00 0.00 0.00 67 1010.4
20260506233030 46 25 0.0 0.0 0.00 0.00 0.00 66 1010.5
20260506231529 46 25 0.0 0.0 0.00 0.00 0.00 65 1010.5
20260506230029 47 25 0.0 0.0 0.00 0.00 0.00 61 1010.6
20260506224533 47 25 0.0 0.0 0.00 0.00 0.00 60 1010.8
20260506223030 46 25 0.0 0.0 0.00 0.00 0.00 62 1010.8
20260506221531 46 25 0.0 0.0 0.00 0.00 0.00 61 1010.9
20260506220009 46 24 0.0 0.0 0.00 0.00 0.00 62 1010.9
20260506214509 46 21 0.0 0.0 0.00 0.00 0.00 61 1010.7
20260506213052 45 12 0.0 0.0 0.00 0.00 0.00 63 1010.7
20260506211552 45 10 0.0 0.0 0.00 0.00 0.00 62 1010.7
20260506210043 45 19 0.0 0.0 0.00 0.00 0.00 61 1010.5
20260506204539 46 85 0.0 0.0 0.00 0.00 0.00 58 1010.6
20260506203047 46 56 0.0 0.0 0.00 0.00 0.00 61 1010.6
20260506201545 45 10 0.0 0.0 0.00 0.00 0.00 59 1010.7
20260506200036 44 157 0.0 0.0 0.00 0.00 0.00 62 1010.9
20260506194540 43 4 0.0 0.0 0.00 0.00 0.00 65 1010.9